Tracking 18850 objects as of 22-Nov-2017
HD Live streaming from Space Station
objects crossing your sky now

FENGYUN 1C DEB

Track FENGYUN 1C DEB now!
10-day predictions


NORAD ID: 37042
Int'l Code: 1999-025EEA
Perigee: 705.1 km
Apogee: 855.0 km
Inclination: 98.8 °
Period: 100.3 minutes
Semi major axis: 7151 km
RCS: 0.0054 m2 (small)
Launch date: May 10, 1999
Source: People's Republic of China (PRC)
Launch site: Taiyaun Space Center, China (TSC)

Note: This is SATELLITE DEBRIS
aabbcc
Your satellite tracking list
Your tracking list is empty




NASA's NSSDC Master Catalog

Two Line Element Set (TLE):
1 37042U 99025EEA 17317.33560923  .00000941  00000-0  32216-3 0  9992
2 37042  98.7627 349.0611 0104804 241.3261 117.7356 14.35638365524923
Source of the keplerian elements: AFSPC